STARLINK-32377, 61888

Orbit data source: Space-Track

STARLINK-32377, 61888 is a payload satellite owned by SpaceX/Seattle (US) in LEO that was launched on Sat, 09 Nov 2024 UTC via an FALCON 9 launch vehicle from the Air Force Western Test Range (AFWTR). Payload-class satellites include a variety of spacecraft equipped with specific instruments for various scientific and technological missions. These include communications satellites like Starlink; space stations such as the ISS; scientific satellites like the Hubble; Earth observation satellites from companies like Planet Labs, Umbra, and HawkEye 360; GPS; miniature CubeSats for education and research; and military/defense satellites.

Loading next visibility...
Identifier
61888, 2024-204Q
Orbit
LEO
Country
Flag of USUS
Related business
Manufacturer
SpaceX/Seattle
Mission
Operational Commercial Communications
Bus & Motor
STARLINK V2M, Unknown motor
Mass
730 kg wet, ~700 kg dry
Launch date (UTC)
2024-11-09 (2 years ago)
Launch vehicle
FALCON 9
Launch site
Air Force Western Test Range (AFWTR)
Object type
Payload
Rocket body
Debris
Shape & HBR
Box + 2 Pan, 17.7 m
Radar Cross Section
33.884 m², Large (>1 m²)

Expand to show TLE details & history
Last TLE update: 1 day ago

TLE from 1 day ago
0 STARLINK-32377
1 61888U 24204Q   26170.78769988 -.00007014  00000-0 -19657-3 0  9996
2 61888  53.1594  11.1127 0000851  56.5595 303.5489 15.34412991 90743
Epoch: 2026-06-19T18:54Z
TLE epoch observation values (Epoch: 2026-06-19T18:54:17.269Z)
Latitude
-0.00002°
Longitude
179.52907°
Altitude
463.244 km
Speed
7.636 km/s
True Right ascension
00h 44m 27s
True Declination
0° 00' 00"
Sunlit
Object was in daylight at epoch
Visualization orbit readout
Latitude
Unknown
Longitude
Unknown
Altitude
Unknown
Speed
Unknown
Apparent Right ascension
Unknown
Apparent Declination
Unknown
Sunlit
N/A
Visualization observer readout
Local Sidereal Time
07:15:55
Azimuth
Unknown
Elevation
Unknown
Doppler factor
Unknown
Orbital elements
Apogee altitude
463.504 km
Perigee altitude
462.339 km
Semi-major axis
6,841.059 km
Eccentricity
0.00009
Inclination
53.1594°
RAAN
11.1127°
Arg. of periapsis
56.5595°
True anomaly
303.54077°
Mean anomaly
303.5489°
Eccentric anomaly
303.54484°
Mean motion
3.83582 °/min
Orbital period
93.85 mins
BSTAR
-0.00019657
Loading maneuver chart data...
Computing Atmospheric mass density...
Loading historical data...
Loading historical data...
Loading historical data...
Loading historical data...
Loading historical data...
Loading historical data...
Loading historical data...

Documentation

Showing up to 5 results
|